FLOCK 4Y 4

导读

FLOCK 4Y 4是美国Planet公司于2023年1月3日发射的SuperDove系列商业遥感卫星,属于FLOCK-4y批次。该卫星归入Planet的Dove卫星星座,配备8个光谱波段,能提升星座在轨观测容量。它可快速向全球客户提供高分辨率遥感影像,广泛服务于农业估产、林业监测、城市规划等领域,助力行业精准决策与自然资源动态管理,持续补充完善Planet全球 daily 重访观测能力。

基本信息
目录编号:
55055
目录名称:
FLOCK 4Y 4
国际标识:
2023-001AY
轨道中心:
EARTH
卫星名称:
FLOCK 4Y 4
卫星全名:
--
卫星状态:
已陨落 最后检测时间 2025-03-08
发射日期:
2023-01-03 UTC
国别 :
美国 (US)
星等 :
--
轨道信息
数据来源 国际轨道数据
星历时间: 2025-03-03T05:22:25+0800
轨道信息已过期512天
半长轴: 6568.38km
偏心率: 0.0010641
轨道倾角: 97.342°
近地点辐角 236.480°
升交点赤经 134.966°
平近点角 123.548°
近地点: 183.255km
远地点: 197.235km
周期: 88.297分钟
每日圈数: 16.308552
详细信息
使用方式:
暂无